Home > Weather > Willich > Past weeks

Flag for Germany Past Weather in Willich, North Rhine-Westphalia, Germany — Yesterday and Last 2 Weeks

Now
61 °F

Passing clouds.


Feels Like: 61 °F
Forecast: 49 / 70 °F
Wind: 3 mph from North

Location: Monchengladbach Airport

Current Time: May 25, 2016 at 3:13:38 PM

Latest Report: May 25, 2016 at 2:20 PM


Visibility: N/A

Pressure: 29.98 "Hg

Humidity: 59%

Dew Point: 46 °F

Location of WillichLocation

Past Weather in Willich — Graph

°F

Willich Temperature Yesterday

Maximum temperature yesterday: 57 °F (at 2:20 PM)
Minimum temperature yesterday: 50 °F (at 7:50 AM)
Average temperature yesterday: 54 °F

High & Low Weather Summary for the Past Weeks

 TemperatureHumidityPressure
High77 °F (May 11, 2:50 PM)100% (May 22, 7:20 PM)30.12 "Hg (May 22, 7:20 PM)
Low45 °F (May 15, 7:50 AM)25% (May 13, 5:50 PM)29.47 "Hg (May 12, 1:50 PM)
Average61 °F63%29.87 "Hg
* Reported May 10 1:20 PM — May 25 1:20 PM, Willich, Weather by CustomWeather, © 2016

Note: Actual official high and low records may vary slightly from our data, if they occured in-between our weather recording intervals... More about our weather records

Advertising

Willich Weather History for the Previous 24 Hours

Scroll right to see more
 ConditionsComfort  
Time TempWeatherWind HumidityBarometerVisibility
1:20 PM
Wed, May 25
59 °FScattered clouds.3 mph63%29.98 "HgN/A
12:50 PM59 °FScattered clouds.3 mph68%29.98 "HgN/A
12:20 PM57 °FScattered clouds.5 mph67%29.98 "HgN/A
11:50 AM55 °FScattered clouds.5 mph72%29.98 "HgN/A
11:20 AM55 °FScattered clouds.6 mph72%29.98 "HgN/A
10:50 AM55 °FBroken clouds.5 mph72%29.98 "HgN/A
10:20 AM55 °FPartly sunny.6 mph72%30.01 "HgN/A
9:50 AM54 °FPartly sunny.5 mph77%30.01 "HgN/A
9:20 AM54 °FPartly sunny.5 mph77%30.01 "HgN/A
8:50 AM52 °FPartly sunny.3 mph82%30.01 "HgN/A
8:20 AM52 °FPartly sunny.5 mph88%30.01 "HgN/A
7:50 AM52 °FBroken clouds.2 mph88%29.98 "HgN/A
8:20 PM
Tue, May 24
54 °FPassing clouds.7 mph82%30.01 "HgN/A
7:50 PM54 °FPassing clouds.8 mph82%30.01 "HgN/A
7:20 PM55 °FPassing clouds.8 mph77%30.01 "HgN/A
6:50 PM57 °FPassing clouds.8 mph72%30.01 "HgN/A
6:20 PM57 °FPassing clouds.12 mph72%30.01 "HgN/A
5:50 PM57 °FPassing clouds.9 mph72%30.01 "HgN/A
5:20 PM57 °FPartly cloudy.9 mph72%30.01 "HgN/A
4:50 PM57 °FPassing clouds.9 mph72%30.01 "HgN/A
4:20 PM57 °FPassing clouds.9 mph67%30.01 "HgN/A
3:50 PM57 °FPassing clouds.13 mph67%30.01 "HgN/A
3:20 PM57 °FPassing clouds.10 mph67%30.01 "HgN/A
Weather by CustomWeather, © 2016

See weather overviewHow to use our weather pages